Time,TemperatureF,DewpointF,PressureIn,WindDirection,WindDirectionDegrees,WindSpeedMPH,WindSpeedGustMPH,Humidity,HourlyPrecipIn,Conditions,Clouds,dailyrainin,SoftwareType,DateUTC
2013-07-31 00:01:00,65.3,48.2,29.32,SSE,160,0.0,0.0,54,0.00,,---,0.00,VWS V14.01,2013-07-31 04:01:00,
2013-07-31 00:02:00,65.3,48.2,29.32,SSE,160,0.0,0.0,54,0.00,,---,0.00,VWS V14.01,2013-07-31 04:02:00,
2013-07-31 00:05:00,65.3,48.2,29.32,SSE,160,0.0,0.0,54,0.00,,---,0.00,VWS V14.01,2013-07-31 04:05:00,
2013-07-31 00:06:00,65.3,48.2,29.32,SSE,160,0.0,0.0,54,0.00,,---,0.00,VWS V14.01,2013-07-31 04:06:00,
2013-07-31 00:11:00,65.1,48.1,29.32,SSE,160,0.0,0.0,54,0.00,,---,0.00,VWS V14.01,2013-07-31 04:11:00,
2013-07-31 00:16:00,65.1,48.6,29.32,SSE,160,0.0,0.0,55,0.00,,---,0.00,VWS V14.01,2013-07-31 04:16:00,
2013-07-31 00:17:00,65.1,48.6,29.32,SSE,160,0.0,0.0,55,0.00,,---,0.00,VWS V14.01,2013-07-31 04:17:00,
2013-07-31 00:22:00,65.1,48.6,29.32,SSE,160,0.0,0.0,55,0.00,,---,0.00,VWS V14.01,2013-07-31 04:22:00,
2013-07-31 00:28:00,65.1,48.1,29.32,SSE,160,0.0,0.0,54,0.00,,---,0.00,VWS V14.01,2013-07-31 04:28:00,
2013-07-31 00:33:00,65.1,48.1,29.32,SSE,160,0.0,0.0,54,0.00,,---,0.00,VWS V14.01,2013-07-31 04:33:00,
2013-07-31 00:38:00,65.1,48.1,29.32,SSE,160,0.0,0.0,54,0.00,,---,0.00,VWS V14.01,2013-07-31 04:38:00,
2013-07-31 00:43:00,64.9,47.9,29.32,SSE,160,0.0,0.0,54,0.00,,---,0.00,VWS V14.01,2013-07-31 04:43:00,
2013-07-31 00:48:00,64.9,47.9,29.32,SSE,160,0.0,0.0,54,0.00,,---,0.00,VWS V14.01,2013-07-31 04:48:00,
2013-07-31 00:53:00,64.8,47.8,29.32,SSE,160,0.0,0.0,54,0.00,,---,0.00,VWS V14.01,2013-07-31 04:53:00,
2013-07-31 00:58:00,64.8,47.8,29.32,SSE,160,0.0,0.0,54,0.00,,---,0.00,VWS V14.01,2013-07-31 04:58:00,
2013-07-31 01:03:00,64.9,48.4,29.32,SSE,160,0.0,0.0,55,0.00,,---,0.00,VWS V14.01,2013-07-31 05:03:00,
2013-07-31 01:08:00,64.8,48.2,29.32,SSE,160,0.0,0.0,55,0.00,,---,0.00,VWS V14.01,2013-07-31 05:08:00,
2013-07-31 01:13:00,64.8,48.2,29.32,SSE,160,0.0,0.0,55,0.00,,---,0.00,VWS V14.01,2013-07-31 05:13:00,
2013-07-31 01:18:00,64.4,47.9,29.32,SSE,160,0.0,0.0,55,0.00,,---,0.00,VWS V14.01,2013-07-31 05:18:00,
2013-07-31 01:23:00,64.2,47.2,29.32,SSE,160,0.0,0.0,54,0.00,,---,0.00,VWS V14.01,2013-07-31 05:23:00,
2013-07-31 01:28:00,64.0,47.1,29.32,SSE,160,0.0,0.0,54,0.00,,---,0.00,VWS V14.01,2013-07-31 05:28:00,
2013-07-31 01:33:00,63.9,46.9,29.32,SSE,160,0.0,0.0,54,0.00,,---,0.00,VWS V14.01,2013-07-31 05:33:00,
2013-07-31 01:38:00,63.9,47.4,29.32,SSE,160,0.0,0.0,55,0.00,,---,0.00,VWS V14.01,2013-07-31 05:38:00,
2013-07-31 01:43:00,63.7,47.7,29.32,SSE,160,0.0,0.0,56,0.00,,---,0.00,VWS V14.01,2013-07-31 05:43:00,
2013-07-31 01:48:00,63.5,47.5,29.32,SSE,160,0.0,0.0,56,0.00,,---,0.00,VWS V14.01,2013-07-31 05:48:00,
2013-07-31 01:53:00,63.5,48.0,29.32,SSE,160,0.0,0.0,57,0.00,,---,0.00,VWS V14.01,2013-07-31 05:53:00,
2013-07-31 01:58:00,63.3,48.3,29.32,SSE,160,0.0,0.0,58,0.00,,---,0.00,VWS V14.01,2013-07-31 05:58:00,
2013-07-31 02:03:00,63.3,48.8,29.32,SSE,160,0.0,0.0,59,0.00,,---,0.00,VWS V14.01,2013-07-31 06:03:00,
2013-07-31 02:08:00,63.1,48.6,29.32,SSE,160,0.0,0.0,59,0.00,,---,0.00,VWS V14.01,2013-07-31 06:08:00,
2013-07-31 02:13:00,63.1,48.6,29.32,SSE,160,0.0,0.0,59,0.00,,---,0.00,VWS V14.01,2013-07-31 06:13:00,
2013-07-31 02:18:00,63.1,49.0,29.32,SSE,160,0.0,0.0,60,0.00,,---,0.00,VWS V14.01,2013-07-31 06:18:00,
2013-07-31 02:23:00,63.1,49.5,29.32,SSE,160,0.0,0.0,61,0.00,,---,0.00,VWS V14.01,2013-07-31 06:23:00,
2013-07-31 02:28:00,63.1,49.9,29.32,SSE,160,0.0,0.0,62,0.00,,---,0.00,VWS V14.01,2013-07-31 06:28:00,
2013-07-31 02:33:00,63.1,49.9,29.32,SSE,160,0.0,0.0,62,0.00,,---,0.00,VWS V14.01,2013-07-31 06:33:00,
2013-07-31 02:38:00,63.1,50.3,29.32,SSE,160,0.0,0.0,63,0.00,,---,0.00,VWS V14.01,2013-07-31 06:38:00,
2013-07-31 02:43:00,63.1,51.2,29.32,SSE,160,0.0,0.0,65,0.00,,---,0.00,VWS V14.01,2013-07-31 06:43:00,
2013-07-31 02:48:00,63.1,51.2,29.32,SSE,160,0.0,0.0,65,0.00,,---,0.00,VWS V14.01,2013-07-31 06:48:00,
2013-07-31 02:53:00,63.1,51.2,29.32,SSE,160,0.0,0.0,65,0.00,,---,0.00,VWS V14.01,2013-07-31 06:53:00,
2013-07-31 02:58:00,63.1,51.2,29.32,SSE,160,0.0,0.0,65,0.00,,---,0.00,VWS V14.01,2013-07-31 06:58:00,
2013-07-31 03:03:00,63.1,51.2,29.32,SSE,160,0.0,0.0,65,0.00,,---,0.00,VWS V14.01,2013-07-31 07:03:00,
2013-07-31 03:08:00,63.1,51.2,29.32,SSE,160,0.0,0.0,65,0.00,,---,0.00,VWS V14.01,2013-07-31 07:08:00,
2013-07-31 03:13:00,63.1,51.2,29.32,SSE,160,0.0,0.0,65,0.00,,---,0.00,VWS V14.01,2013-07-31 07:13:00,
2013-07-31 03:18:00,63.0,51.4,29.32,SSE,160,0.0,0.0,66,0.00,,---,0.00,VWS V14.01,2013-07-31 07:18:00,
2013-07-31 03:23:00,63.0,51.4,29.32,SSE,160,0.0,0.0,66,0.00,,---,0.00,VWS V14.01,2013-07-31 07:23:00,
2013-07-31 03:28:00,63.0,51.4,29.32,SSE,160,0.0,0.0,66,0.00,,---,0.00,VWS V14.01,2013-07-31 07:28:00,
2013-07-31 03:33:00,63.0,51.0,29.32,SSE,160,0.0,0.0,65,0.00,,---,0.00,VWS V14.01,2013-07-31 07:33:00,
2013-07-31 03:38:00,62.8,50.8,29.32,SSE,160,0.0,0.0,65,0.00,,---,0.00,VWS V14.01,2013-07-31 07:38:00,
2013-07-31 03:43:00,62.8,50.8,29.32,SSE,160,0.0,0.0,65,0.00,,---,0.00,VWS V14.01,2013-07-31 07:43:00,
2013-07-31 03:48:00,62.6,50.7,29.32,SSE,160,0.0,0.0,65,0.00,,---,0.00,VWS V14.01,2013-07-31 07:48:00,
2013-07-31 03:53:00,62.6,50.7,29.32,SSE,160,0.0,0.0,65,0.00,,---,0.00,VWS V14.01,2013-07-31 07:53:00,
2013-07-31 03:58:00,62.4,50.5,29.32,SSE,160,0.0,0.0,65,0.00,,---,0.00,VWS V14.01,2013-07-31 07:58:00,
2013-07-31 04:03:00,62.2,50.3,29.32,SSE,160,0.0,0.0,65,0.00,,---,0.00,VWS V14.01,2013-07-31 08:03:00,
2013-07-31 04:08:00,62.1,50.2,29.32,SSE,160,0.0,0.0,65,0.00,,---,0.00,VWS V14.01,2013-07-31 08:08:00,
2013-07-31 04:14:00,61.9,50.0,29.32,SSE,160,0.0,0.0,65,0.00,,---,0.00,VWS V14.01,2013-07-31 08:14:00,
2013-07-31 04:19:00,61.9,50.0,29.32,SSE,160,0.0,0.0,65,0.00,,---,0.00,VWS V14.01,2013-07-31 08:19:00,
2013-07-31 04:24:00,61.9,50.0,29.32,SSE,160,0.0,0.0,65,0.00,,---,0.00,VWS V14.01,2013-07-31 08:24:00,
2013-07-31 04:29:00,61.7,49.8,29.32,SSE,160,0.0,0.0,65,0.00,,---,0.00,VWS V14.01,2013-07-31 08:29:00,
2013-07-31 04:34:00,61.7,50.2,29.32,SSE,160,0.0,0.0,66,0.00,,---,0.00,VWS V14.01,2013-07-31 08:34:00,
2013-07-31 04:39:00,61.7,50.2,29.32,SSE,160,0.0,0.0,66,0.00,,---,0.00,VWS V14.01,2013-07-31 08:39:00,
2013-07-31 04:44:00,61.7,50.2,29.32,SSE,160,0.0,0.0,66,0.00,,---,0.00,VWS V14.01,2013-07-31 08:44:00,
2013-07-31 04:49:00,61.7,50.6,29.32,SSE,160,0.0,0.0,67,0.00,,---,0.00,VWS V14.01,2013-07-31 08:49:00,
2013-07-31 04:54:00,61.7,51.0,29.32,SSE,160,0.0,0.0,68,0.00,,---,0.00,VWS V14.01,2013-07-31 08:54:00,
2013-07-31 04:59:00,61.7,51.4,29.32,SSE,160,0.0,0.0,69,0.00,,---,0.00,VWS V14.01,2013-07-31 08:59:00,
2013-07-31 05:04:00,61.7,51.4,29.32,SSE,160,0.0,0.0,69,0.00,,---,0.00,VWS V14.01,2013-07-31 09:04:00,
2013-07-31 05:09:00,61.7,51.4,29.32,SSE,160,0.0,0.0,69,0.00,,---,0.00,VWS V14.01,2013-07-31 09:09:00,
2013-07-31 05:14:00,61.7,51.4,29.32,SSE,160,0.0,0.0,69,0.00,,---,0.00,VWS V14.01,2013-07-31 09:14:00,
2013-07-31 05:19:00,61.7,51.4,29.32,SSE,160,0.0,0.0,69,0.00,,---,0.00,VWS V14.01,2013-07-31 09:19:00,
2013-07-31 05:24:00,61.7,51.4,29.32,SSE,160,0.0,0.0,69,0.00,,---,0.00,VWS V14.01,2013-07-31 09:24:00,
2013-07-31 05:29:00,61.7,51.4,29.32,SSE,160,0.0,0.0,69,0.00,,---,0.00,VWS V14.01,2013-07-31 09:29:00,
2013-07-31 05:34:00,61.7,51.4,29.32,SSE,160,0.0,0.0,69,0.00,,---,0.00,VWS V14.01,2013-07-31 09:34:00,
2013-07-31 05:39:00,61.7,51.4,29.32,SSE,160,0.0,0.0,69,0.00,,---,0.00,VWS V14.01,2013-07-31 09:39:00,
2013-07-31 05:44:00,61.7,51.4,29.32,SSE,160,0.0,0.0,69,0.00,,---,0.00,VWS V14.01,2013-07-31 09:44:00,
2013-07-31 05:49:00,61.7,51.4,29.32,SSE,160,0.0,0.0,69,0.00,,---,0.00,VWS V14.01,2013-07-31 09:49:00,
2013-07-31 05:54:00,61.7,51.4,29.32,SSE,160,0.0,0.0,69,0.00,,---,0.00,VWS V14.01,2013-07-31 09:54:00,
2013-07-31 05:59:00,61.7,51.4,29.32,SSE,160,0.0,0.0,69,0.00,,---,0.00,VWS V14.01,2013-07-31 09:59:00,
2013-07-31 06:04:00,61.7,51.4,29.32,SSE,160,0.0,0.0,69,0.00,,---,0.00,VWS V14.01,2013-07-31 10:04:00,
2013-07-31 06:09:00,61.7,51.4,29.32,SSE,160,0.0,0.0,69,0.00,,---,0.00,VWS V14.01,2013-07-31 10:09:00,
2013-07-31 06:14:00,61.7,51.4,29.32,SSE,160,0.0,0.0,69,0.00,,---,0.00,VWS V14.01,2013-07-31 10:14:00,
2013-07-31 06:19:00,61.7,51.4,29.32,SSE,160,0.0,0.0,69,0.00,,---,0.00,VWS V14.01,2013-07-31 10:19:00,
2013-07-31 06:24:00,61.7,51.4,29.32,SSE,160,0.0,0.0,69,0.00,,---,0.00,VWS V14.01,2013-07-31 10:24:00,
2013-07-31 06:29:00,61.7,51.4,29.32,SSE,160,0.0,0.0,69,0.00,,---,0.00,VWS V14.01,2013-07-31 10:29:00,
2013-07-31 06:34:00,61.7,51.4,29.35,SSE,160,0.0,0.0,69,0.00,,---,0.00,VWS V14.01,2013-07-31 10:34:00,
2013-07-31 06:39:00,61.7,51.4,29.35,SSE,160,0.0,0.0,69,0.00,,---,0.00,VWS V14.01,2013-07-31 10:39:00,
2013-07-31 06:44:00,61.7,51.4,29.35,SSE,160,0.0,0.0,69,0.00,,---,0.00,VWS V14.01,2013-07-31 10:44:00,
2013-07-31 06:49:00,61.7,51.4,29.35,SSE,160,0.0,0.0,69,0.00,,---,0.00,VWS V14.01,2013-07-31 10:49:00,
2013-07-31 06:54:00,61.7,51.4,29.35,SSE,160,0.0,0.0,69,0.00,,---,0.00,VWS V14.01,2013-07-31 10:54:00,
2013-07-31 06:59:00,61.7,51.4,29.35,SSE,160,0.0,0.0,69,0.00,,---,0.00,VWS V14.01,2013-07-31 10:59:00,
2013-07-31 07:04:00,61.7,51.4,29.35,SSE,160,0.0,0.0,69,0.00,,---,0.00,VWS V14.01,2013-07-31 11:04:00,
2013-07-31 07:09:00,61.7,51.4,29.35,SSE,160,0.0,0.0,69,0.00,,---,0.00,VWS V14.01,2013-07-31 11:09:00,
2013-07-31 07:14:00,61.7,51.4,29.35,SSE,160,0.0,0.0,69,0.00,,---,0.00,VWS V14.01,2013-07-31 11:14:00,
2013-07-31 07:19:00,61.7,51.4,29.35,SSE,160,0.0,0.0,69,0.00,,---,0.00,VWS V14.01,2013-07-31 11:19:00,
2013-07-31 07:24:00,61.7,51.4,29.35,SSE,160,0.0,0.0,69,0.00,,---,0.00,VWS V14.01,2013-07-31 11:24:00,
2013-07-31 07:29:00,61.7,51.4,29.35,SSE,160,0.0,0.0,69,0.00,,---,0.00,VWS V14.01,2013-07-31 11:29:00,
2013-07-31 07:34:00,61.7,51.4,29.35,NE,48,0.0,0.0,69,0.00,,---,0.00,VWS V14.01,2013-07-31 11:34:00,
2013-07-31 07:40:00,61.7,51.4,29.35,NE,47,0.0,0.0,69,0.00,,---,0.00,VWS V14.01,2013-07-31 11:40:00,
2013-07-31 07:45:00,61.7,51.4,29.35,NE,47,0.0,0.0,69,0.00,,---,0.00,VWS V14.01,2013-07-31 11:45:00,
2013-07-31 07:50:00,61.7,51.4,29.35,NE,48,0.0,0.0,69,0.00,,---,0.00,VWS V14.01,2013-07-31 11:50:00,
2013-07-31 07:55:00,66.4,52.5,29.35,NE,47,0.0,0.0,61,0.00,,---,0.00,VWS V14.01,2013-07-31 11:55:00,
2013-07-31 08:00:00,66.7,50.6,29.35,NE,48,0.0,0.0,56,0.00,,---,0.00,VWS V14.01,2013-07-31 12:00:00,
2013-07-31 08:05:00,67.1,49.9,29.35,NE,47,0.0,0.0,54,0.00,,---,0.00,VWS V14.01,2013-07-31 12:05:00,
2013-07-31 08:10:00,67.6,49.4,29.35,NE,47,0.0,0.0,52,0.00,,---,0.00,VWS V14.01,2013-07-31 12:10:00,
2013-07-31 08:15:00,68.2,49.4,29.35,NE,47,0.0,0.0,51,0.00,,---,0.00,VWS V14.01,2013-07-31 12:15:00,
2013-07-31 08:20:00,68.5,48.6,29.35,NE,47,0.0,0.0,49,0.00,,---,0.00,VWS V14.01,2013-07-31 12:20:00,
2013-07-31 08:25:00,69.1,49.1,29.35,NE,48,0.0,0.0,49,0.00,,---,0.00,VWS V14.01,2013-07-31 12:25:00,
2013-07-31 08:30:00,69.4,48.3,29.35,NE,47,0.0,0.0,47,0.00,,---,0.00,VWS V14.01,2013-07-31 12:30:00,
2013-07-31 08:35:00,69.8,48.1,29.35,NE,47,0.0,0.0,46,0.00,,---,0.00,VWS V14.01,2013-07-31 12:35:00,
2013-07-31 08:40:00,70.2,47.2,29.35,NE,51,0.0,4.0,44,0.00,,---,0.00,VWS V14.01,2013-07-31 12:40:00,
2013-07-31 08:45:00,70.3,46.2,29.35,NE,51,0.0,0.0,42,0.00,,---,0.00,VWS V14.01,2013-07-31 12:45:00,
2013-07-31 08:50:00,70.7,46.5,29.35,NE,51,0.0,0.0,42,0.00,,---,0.00,VWS V14.01,2013-07-31 12:50:00,
2013-07-31 08:56:00,71.1,46.2,29.35,NE,54,0.0,0.0,41,0.00,,---,0.00,VWS V14.01,2013-07-31 12:56:00,
2013-07-31 09:01:00,71.6,45.4,29.35,East,82,0.0,0.0,39,0.00,,---,0.00,VWS V14.01,2013-07-31 13:01:00,
2013-07-31 09:06:00,72.0,43.6,29.35,ENE,66,0.0,0.0,36,0.00,,---,0.00,VWS V14.01,2013-07-31 13:06:00,
2013-07-31 09:11:00,72.3,41.6,29.35,ENE,65,0.0,0.0,33,0.00,,---,0.00,VWS V14.01,2013-07-31 13:11:00,
2013-07-31 09:16:00,72.7,41.2,29.35,ENE,65,0.0,0.0,32,0.00,,---,0.00,VWS V14.01,2013-07-31 13:16:00,
2013-07-31 09:21:00,73.2,41.6,29.35,NE,41,0.0,0.0,32,0.00,,---,0.00,VWS V14.01,2013-07-31 13:21:00,
2013-07-31 09:26:00,73.6,41.9,29.35,NNE,32,0.0,0.0,32,0.00,,---,0.00,VWS V14.01,2013-07-31 13:26:00,
2013-07-31 09:31:00,73.6,41.9,29.35,NE,48,0.0,0.0,32,0.00,,---,0.00,VWS V14.01,2013-07-31 13:31:00,
2013-07-31 09:36:00,73.8,41.3,29.35,SSE,153,0.0,0.0,31,0.00,,---,0.00,VWS V14.01,2013-07-31 13:36:00,
2013-07-31 09:41:00,74.1,41.6,29.35,ESE,120,0.0,0.0,31,0.00,,---,0.00,VWS V14.01,2013-07-31 13:41:00,
2013-07-31 09:47:00,74.3,41.7,29.32,ENE,74,0.0,0.0,31,0.00,,---,0.00,VWS V14.01,2013-07-31 13:47:00,
2013-07-31 09:52:00,74.8,41.4,29.32,East,98,0.0,0.0,30,0.00,,---,0.00,VWS V14.01,2013-07-31 13:52:00,
2013-07-31 09:57:00,75.4,42.7,29.32,ESE,105,0.0,0.0,31,0.00,,---,0.00,VWS V14.01,2013-07-31 13:57:00,
2013-07-31 10:02:00,75.2,34.9,29.32,East,79,0.0,0.0,23,0.00,,---,0.00,VWS V14.01,2013-07-31 14:02:00,
2013-07-31 10:07:00,75.6,41.1,29.32,ESE,118,0.0,0.0,29,0.00,,---,0.00,VWS V14.01,2013-07-31 14:07:00,
2013-07-31 10:12:00,76.3,37.9,29.32,SE,140,0.0,3.1,25,0.00,,---,0.00,VWS V14.01,2013-07-31 14:12:00,
2013-07-31 10:17:00,77.0,36.4,29.32,East,80,0.0,4.9,23,0.00,,---,0.00,VWS V14.01,2013-07-31 14:17:00,
2013-07-31 10:22:00,77.4,37.8,29.32,SE,136,0.0,0.0,24,0.00,,---,0.00,VWS V14.01,2013-07-31 14:22:00,
2013-07-31 10:27:00,77.7,37.0,29.32,SSE,157,0.0,0.0,23,0.00,,---,0.00,VWS V14.01,2013-07-31 14:27:00,
2013-07-31 10:32:00,77.9,34.9,29.35,NE,52,0.0,0.0,21,0.00,,---,0.00,VWS V14.01,2013-07-31 14:32:00,
2013-07-31 10:37:00,77.9,33.6,29.35,NE,36,0.0,0.0,20,0.00,,---,0.00,VWS V14.01,2013-07-31 14:37:00,
2013-07-31 10:43:00,78.4,34.1,29.35,East,101,0.0,0.0,20,0.00,,---,0.00,VWS V14.01,2013-07-31 14:43:00,
2013-07-31 10:48:00,78.6,34.2,29.35,East,92,0.0,0.0,20,0.00,,---,0.00,VWS V14.01,2013-07-31 14:48:00,
2013-07-31 10:53:00,78.8,34.4,29.35,SSE,167,0.0,0.0,20,0.00,,---,0.00,VWS V14.01,2013-07-31 14:53:00,
2013-07-31 10:58:00,79.3,34.8,29.35,ESE,119,0.0,2.7,20,0.00,,---,0.00,VWS V14.01,2013-07-31 14:58:00,
2013-07-31 11:03:00,79.5,35.0,29.32,ESE,115,0.0,2.7,20,0.00,,---,0.00,VWS V14.01,2013-07-31 15:03:00,
2013-07-31 11:08:00,79.0,34.5,29.32,SE,129,0.0,0.0,20,0.00,,---,0.00,VWS V14.01,2013-07-31 15:08:00,
2013-07-31 11:13:00,79.0,34.5,29.32,SE,129,0.0,0.0,20,0.00,,---,0.00,VWS V14.01,2013-07-31 15:13:00,
2013-07-31 11:18:00,78.3,29.9,29.32,ESE,123,0.0,0.0,17,0.00,,---,0.00,VWS V14.01,2013-07-31 15:18:00,
2013-07-31 11:23:00,78.3,33.9,29.32,East,100,2.7,3.1,20,0.00,,---,0.00,VWS V14.01,2013-07-31 15:23:00,
2013-07-31 11:28:00,78.3,33.9,29.32,ENE,67,0.0,4.0,20,0.00,,---,0.00,VWS V14.01,2013-07-31 15:28:00,
2013-07-31 11:33:00,78.8,35.6,29.32,East,85,0.0,0.0,21,0.00,,---,0.00,VWS V14.01,2013-07-31 15:33:00,
2013-07-31 11:38:00,79.3,34.8,29.32,SSE,156,0.0,3.6,20,0.00,,---,0.00,VWS V14.01,2013-07-31 15:38:00,
2013-07-31 11:43:00,79.3,30.8,29.32,SSE,154,0.0,0.0,17,0.00,,---,0.00,VWS V14.01,2013-07-31 15:43:00,
2013-07-31 11:48:00,79.2,30.6,29.32,SSE,152,0.0,3.1,17,0.00,,---,0.00,VWS V14.01,2013-07-31 15:48:00,
2013-07-31 11:53:00,78.8,34.4,29.32,SSE,150,0.0,0.0,20,0.00,,---,0.00,VWS V14.01,2013-07-31 15:53:00,
2013-07-31 11:58:00,79.0,34.5,29.32,North,5,0.0,2.7,20,0.00,,---,0.00,VWS V14.01,2013-07-31 15:58:00,
2013-07-31 12:03:00,79.3,34.8,29.32,NE,43,0.0,0.0,20,0.00,,---,0.00,VWS V14.01,2013-07-31 16:03:00,
2013-07-31 12:08:00,79.7,35.1,29.32,ENE,66,0.0,0.0,20,0.00,,---,0.00,VWS V14.01,2013-07-31 16:08:00,
2013-07-31 12:13:00,80.1,35.4,29.32,ESE,107,3.1,3.6,20,0.00,,---,0.00,VWS V14.01,2013-07-31 16:13:00,
2013-07-31 12:18:00,80.2,35.6,29.32,ENE,76,0.0,3.6,20,0.00,,---,0.00,VWS V14.01,2013-07-31 16:18:00,
2013-07-31 12:23:00,80.4,31.7,29.32,ESE,109,0.0,3.6,17,0.00,,---,0.00,VWS V14.01,2013-07-31 16:23:00,
2013-07-31 12:28:00,80.2,31.5,29.32,SE,142,0.0,3.1,17,0.00,,---,0.00,VWS V14.01,2013-07-31 16:28:00,
2013-07-31 12:33:00,79.7,31.1,29.32,ESE,115,3.1,4.5,17,0.00,,---,0.00,VWS V14.01,2013-07-31 16:33:00,
2013-07-31 12:39:00,79.3,34.8,29.32,North,11,0.0,0.0,20,0.00,,---,0.00,VWS V14.01,2013-07-31 16:39:00,
2013-07-31 12:44:00,79.7,28.0,29.32,ESE,115,4.0,4.0,15,0.00,,---,0.00,VWS V14.01,2013-07-31 16:44:00,
2013-07-31 12:49:00,78.4,34.1,29.32,East,96,0.0,0.0,20,0.00,,---,0.00,VWS V14.01,2013-07-31 16:49:00,
2013-07-31 12:54:00,77.7,35.9,29.32,ENE,59,3.6,3.6,22,0.00,,---,0.00,VWS V14.01,2013-07-31 16:54:00,
2013-07-31 12:59:00,78.3,35.2,29.32,NE,51,0.0,3.6,21,0.00,,---,0.00,VWS V14.01,2013-07-31 16:59:00,
2013-07-31 13:04:00,79.5,36.2,29.29,NE,49,0.0,0.0,21,0.00,,---,0.00,VWS V14.01,2013-07-31 17:04:00,
2013-07-31 13:09:00,80.2,35.6,29.29,ENE,72,0.0,0.0,20,0.00,,---,0.00,VWS V14.01,2013-07-31 17:09:00,
2013-07-31 13:14:00,81.0,36.2,29.29,ENE,71,0.0,0.0,20,0.00,,---,0.00,VWS V14.01,2013-07-31 17:14:00,
2013-07-31 13:19:00,81.1,32.2,29.29,East,89,0.0,0.0,17,0.00,,---,0.00,VWS V14.01,2013-07-31 17:19:00,
2013-07-31 13:24:00,80.6,34.6,29.29,ENE,72,0.0,2.7,19,0.00,,---,0.00,VWS V14.01,2013-07-31 17:24:00,
2013-07-31 13:29:00,79.9,31.2,29.29,East,99,0.0,0.0,17,0.00,,---,0.00,VWS V14.01,2013-07-31 17:29:00,
2013-07-31 13:34:00,79.3,34.8,29.29,SE,133,3.1,3.1,20,0.00,,---,0.00,VWS V14.01,2013-07-31 17:34:00,
2013-07-31 13:39:00,79.0,35.8,29.29,ENE,74,0.0,0.0,21,0.00,,---,0.00,VWS V14.01,2013-07-31 17:39:00,
2013-07-31 13:44:00,79.2,35.9,29.29,ENE,75,0.0,2.7,21,0.00,,---,0.00,VWS V14.01,2013-07-31 17:44:00,
2013-07-31 13:49:00,79.3,34.8,29.29,SSE,157,0.0,0.0,20,0.00,,---,0.00,VWS V14.01,2013-07-31 17:49:00,
2013-07-31 13:54:00,79.0,34.5,29.29,North,351,4.0,4.0,20,0.00,,---,0.00,VWS V14.01,2013-07-31 17:54:00,
2013-07-31 13:59:00,78.8,30.4,29.29,SE,127,0.0,0.0,17,0.00,,---,0.00,VWS V14.01,2013-07-31 17:59:00,
2013-07-31 14:04:00,78.4,34.1,29.29,East,98,3.1,3.1,20,0.00,,---,0.00,VWS V14.01,2013-07-31 18:04:00,
2013-07-31 14:09:00,78.6,34.2,29.29,ESE,122,0.0,0.0,20,0.00,,---,0.00,VWS V14.01,2013-07-31 18:09:00,
2013-07-31 14:15:00,78.3,29.9,29.29,ESE,121,0.0,0.0,17,0.00,,---,0.00,VWS V14.01,2013-07-31 18:15:00,
2013-07-31 14:21:00,77.4,34.4,29.29,ENE,68,0.0,0.0,21,0.00,,---,0.00,VWS V14.01,2013-07-31 18:21:00,
2013-07-31 14:26:00,76.5,33.7,29.29,ENE,68,0.0,0.0,21,0.00,,---,0.00,VWS V14.01,2013-07-31 18:26:00,
2013-07-31 14:31:00,76.1,34.5,29.29,ENE,68,0.0,0.0,22,0.00,,---,0.00,VWS V14.01,2013-07-31 18:31:00,
2013-07-31 14:36:00,75.9,37.6,29.29,ENE,68,0.0,0.0,25,0.00,,---,0.00,VWS V14.01,2013-07-31 18:36:00,
2013-07-31 14:41:00,75.7,39.4,29.29,ENE,68,0.0,0.0,27,0.00,,---,0.00,VWS V14.01,2013-07-31 18:41:00,
2013-07-31 14:46:00,75.9,37.6,29.29,ENE,68,0.0,0.0,25,0.00,,---,0.00,VWS V14.01,2013-07-31 18:46:00,
2013-07-31 14:51:00,75.6,37.3,29.29,NE,39,2.7,3.6,25,0.00,,---,0.00,VWS V14.01,2013-07-31 18:51:00,
2013-07-31 14:56:00,75.7,34.2,29.29,ENE,62,0.0,0.0,22,0.00,,---,0.00,VWS V14.01,2013-07-31 18:56:00,
2013-07-31 15:01:00,75.7,37.5,29.29,ENE,62,0.0,0.0,25,0.00,,---,0.00,VWS V14.01,2013-07-31 19:01:00,
2013-07-31 15:06:00,75.7,42.1,29.29,NNE,29,0.0,0.0,30,0.00,,---,0.00,VWS V14.01,2013-07-31 19:06:00,
2013-07-31 15:11:00,75.7,42.1,29.29,SE,130,0.0,0.0,30,0.00,,---,0.00,VWS V14.01,2013-07-31 19:11:00,
2013-07-31 15:16:00,75.6,40.2,29.26,ENE,67,0.0,3.6,28,0.00,,---,0.00,VWS V14.01,2013-07-31 19:16:00,
2013-07-31 15:21:00,75.2,37.0,29.26,ENE,73,0.0,0.0,25,0.00,,---,0.00,VWS V14.01,2013-07-31 19:21:00,
2013-07-31 15:26:00,74.8,38.7,29.26,SE,145,0.0,0.0,27,0.00,,---,0.00,VWS V14.01,2013-07-31 19:26:00,
2013-07-31 15:31:00,74.5,39.3,29.26,SE,145,0.0,0.0,28,0.00,,---,0.00,VWS V14.01,2013-07-31 19:31:00,
2013-07-31 15:36:00,74.5,41.9,29.26,SE,143,0.0,0.0,31,0.00,,---,0.00,VWS V14.01,2013-07-31 19:36:00,
2013-07-31 15:42:00,74.7,36.5,29.26,SE,131,0.0,0.0,25,0.00,,---,0.00,VWS V14.01,2013-07-31 19:42:00,
2013-07-31 15:47:00,74.7,35.5,29.26,ESE,112,0.0,0.0,24,0.00,,---,0.00,VWS V14.01,2013-07-31 19:47:00,
2013-07-31 15:52:00,74.8,36.7,29.26,ESE,112,0.0,0.0,25,0.00,,---,0.00,VWS V14.01,2013-07-31 19:52:00,
2013-07-31 15:58:00,74.8,36.7,29.26,NE,50,0.0,0.0,25,0.00,,---,0.00,VWS V14.01,2013-07-31 19:58:00,
2013-07-31 16:04:00,75.0,39.7,29.26,SE,129,0.0,0.0,28,0.00,,---,0.00,VWS V14.01,2013-07-31 20:04:00,
2013-07-31 16:09:00,75.0,41.5,29.26,ENE,63,3.1,3.1,30,0.00,,---,0.00,VWS V14.01,2013-07-31 20:09:00,
2013-07-31 16:14:00,75.0,39.7,29.26,ENE,63,0.0,0.0,28,0.00,,---,0.00,VWS V14.01,2013-07-31 20:14:00,
2013-07-31 16:19:00,74.8,41.4,29.26,ENE,63,0.0,0.0,30,0.00,,---,0.00,VWS V14.01,2013-07-31 20:19:00,
2013-07-31 16:24:00,74.8,41.4,29.26,ENE,63,0.0,0.0,30,0.00,,---,0.00,VWS V14.01,2013-07-31 20:24:00,
2013-07-31 16:29:00,74.8,42.2,29.26,ENE,63,0.0,0.0,31,0.00,,---,0.00,VWS V14.01,2013-07-31 20:29:00,
2013-07-31 16:34:00,74.8,40.5,29.26,ESE,110,0.0,0.0,29,0.00,,---,0.00,VWS V14.01,2013-07-31 20:34:00,
2013-07-31 16:40:00,74.8,38.7,29.26,ESE,110,0.0,0.0,27,0.00,,---,0.00,VWS V14.01,2013-07-31 20:40:00,
2013-07-31 16:45:00,74.8,39.6,29.26,ENE,69,0.0,0.0,28,0.00,,---,0.00,VWS V14.01,2013-07-31 20:45:00,
2013-07-31 16:50:00,74.8,39.6,29.26,ENE,69,0.0,0.0,28,0.00,,---,0.00,VWS V14.01,2013-07-31 20:50:00,
2013-07-31 16:55:00,74.8,36.7,29.26,ESE,102,0.0,0.0,25,0.00,,---,0.00,VWS V14.01,2013-07-31 20:55:00,
2013-07-31 17:00:00,74.8,38.7,29.26,ESE,102,0.0,0.0,27,0.00,,---,0.00,VWS V14.01,2013-07-31 21:00:00,
2013-07-31 17:06:00,74.5,39.3,29.26,East,101,0.0,0.0,28,0.00,,---,0.00,VWS V14.01,2013-07-31 21:06:00,
2013-07-31 17:11:00,74.5,41.0,29.26,ESE,102,0.0,0.0,30,0.00,,---,0.00,VWS V14.01,2013-07-31 21:11:00,
2013-07-31 17:16:00,74.3,41.7,29.26,East,101,0.0,0.0,31,0.00,,---,0.00,VWS V14.01,2013-07-31 21:16:00,
2013-07-31 17:21:00,74.1,41.6,29.26,ESE,102,0.0,0.0,31,0.00,,---,0.00,VWS V14.01,2013-07-31 21:21:00,
2013-07-31 17:26:00,73.8,41.3,29.26,ESE,102,0.0,0.0,31,0.00,,---,0.00,VWS V14.01,2013-07-31 21:26:00,
2013-07-31 17:31:00,73.8,42.1,29.26,ESE,102,0.0,0.0,32,0.00,,---,0.00,VWS V14.01,2013-07-31 21:31:00,
2013-07-31 17:36:00,73.6,41.1,29.26,ESE,102,0.0,0.0,31,0.00,,---,0.00,VWS V14.01,2013-07-31 21:36:00,
2013-07-31 17:41:00,73.6,41.1,29.26,East,101,0.0,0.0,31,0.00,,---,0.00,VWS V14.01,2013-07-31 21:41:00,
2013-07-31 17:46:00,73.6,41.9,29.26,ESE,102,0.0,0.0,32,0.00,,---,0.00,VWS V14.01,2013-07-31 21:46:00,
2013-07-31 17:51:00,73.4,41.8,29.26,ESE,102,0.0,0.0,32,0.00,,---,0.00,VWS V14.01,2013-07-31 21:51:00,
2013-07-31 17:56:00,73.6,41.9,29.26,ESE,102,0.0,0.0,32,0.00,,---,0.00,VWS V14.01,2013-07-31 21:56:00,
2013-07-31 18:01:00,73.6,40.3,29.26,ESE,102,0.0,0.0,30,0.00,,---,0.00,VWS V14.01,2013-07-31 22:01:00,
2013-07-31 18:06:00,73.8,40.4,29.26,ESE,102,0.0,0.0,30,0.00,,---,0.00,VWS V14.01,2013-07-31 22:06:00,
2013-07-31 18:11:00,73.8,41.3,29.26,ESE,102,0.0,0.0,31,0.00,,---,0.00,VWS V14.01,2013-07-31 22:11:00,
2013-07-31 18:16:00,73.8,41.3,29.26,East,101,0.0,0.0,31,0.00,,---,0.00,VWS V14.01,2013-07-31 22:16:00,
2013-07-31 18:21:00,73.6,41.1,29.26,ESE,102,3.1,3.1,31,0.00,,---,0.00,VWS V14.01,2013-07-31 22:21:00,
2013-07-31 18:26:00,73.4,41.0,29.26,ESE,102,0.0,0.0,31,0.00,,---,0.00,VWS V14.01,2013-07-31 22:26:00,
2013-07-31 18:31:00,73.2,40.8,29.26,ESE,102,0.0,0.0,31,0.00,,---,0.00,VWS V14.01,2013-07-31 22:31:00,
2013-07-31 18:37:00,73.0,40.6,29.26,ESE,102,0.0,0.0,31,0.00,,---,0.00,VWS V14.01,2013-07-31 22:37:00,
2013-07-31 18:42:00,72.9,41.3,29.26,East,101,0.0,0.0,32,0.00,,---,0.00,VWS V14.01,2013-07-31 22:42:00,
2013-07-31 18:47:00,72.7,41.2,29.23,East,101,0.0,0.0,32,0.00,,---,0.00,VWS V14.01,2013-07-31 22:47:00,
2013-07-31 18:53:00,72.7,41.2,29.23,ESE,102,0.0,0.0,32,0.00,,---,0.00,VWS V14.01,2013-07-31 22:53:00,
2013-07-31 18:58:00,72.5,41.8,29.23,East,101,0.0,0.0,33,0.00,,---,0.00,VWS V14.01,2013-07-31 22:58:00,
2013-07-31 19:03:00,72.3,41.6,29.23,East,101,0.0,0.0,33,0.00,,---,0.00,VWS V14.01,2013-07-31 23:03:00,
2013-07-31 19:08:00,72.1,41.5,29.23,ESE,102,0.0,0.0,33,0.00,,---,0.00,VWS V14.01,2013-07-31 23:08:00,
2013-07-31 19:13:00,72.1,41.5,29.23,ESE,102,0.0,0.0,33,0.00,,---,0.00,VWS V14.01,2013-07-31 23:13:00,
2013-07-31 19:18:00,72.0,41.3,29.23,ESE,102,0.0,0.0,33,0.00,,---,0.00,VWS V14.01,2013-07-31 23:18:00,
2013-07-31 19:23:00,71.8,41.2,29.23,East,101,0.0,0.0,33,0.00,,---,0.00,VWS V14.01,2013-07-31 23:23:00,
2013-07-31 19:28:00,71.8,41.2,29.23,East,101,0.0,0.0,33,0.00,,---,0.00,VWS V14.01,2013-07-31 23:28:00,
2013-07-31 19:33:00,71.6,41.0,29.23,ESE,102,0.0,0.0,33,0.00,,---,0.00,VWS V14.01,2013-07-31 23:33:00,
2013-07-31 19:38:00,71.6,41.0,29.23,ESE,102,0.0,0.0,33,0.00,,---,0.00,VWS V14.01,2013-07-31 23:38:00,
2013-07-31 19:43:00,71.4,41.6,29.23,ESE,102,0.0,0.0,34,0.00,,---,0.00,VWS V14.01,2013-07-31 23:43:00,
2013-07-31 19:49:00,71.4,41.6,29.23,East,101,0.0,0.0,34,0.00,,---,0.00,VWS V14.01,2013-07-31 23:49:00,
2013-07-31 19:54:00,71.2,41.5,29.23,ESE,102,0.0,0.0,34,0.00,,---,0.00,VWS V14.01,2013-07-31 23:54:00,
2013-07-31 19:59:00,71.2,42.2,29.23,East,101,0.0,0.0,35,0.00,,---,0.00,VWS V14.01,2013-07-31 23:59:00,
2013-07-31 20:04:00,71.1,42.8,29.23,East,101,0.0,0.0,36,0.00,,---,0.00,VWS V14.01,2013-08-01 00:04:00,
2013-07-31 20:09:00,70.9,43.3,29.23,ESE,102,0.0,0.0,37,0.00,,---,0.00,VWS V14.01,2013-08-01 00:09:00,
2013-07-31 20:14:00,70.9,44.0,29.23,East,101,0.0,0.0,38,0.00,,---,0.00,VWS V14.01,2013-08-01 00:14:00,
2013-07-31 20:19:00,70.9,44.0,29.23,East,101,0.0,0.0,38,0.00,,---,0.00,VWS V14.01,2013-08-01 00:19:00,
2013-07-31 20:24:00,70.7,44.5,29.23,ESE,102,0.0,0.0,39,0.00,,---,0.00,VWS V14.01,2013-08-01 00:24:00,
2013-07-31 20:29:00,70.5,45.7,29.23,East,101,0.0,0.0,41,0.00,,---,0.00,VWS V14.01,2013-08-01 00:29:00,
2013-07-31 20:34:00,70.2,46.0,29.23,East,101,0.0,0.0,42,0.00,,---,0.00,VWS V14.01,2013-08-01 00:34:00,
2013-07-31 20:39:00,70.0,45.9,29.23,East,101,0.0,0.0,42,0.00,,---,0.00,VWS V14.01,2013-08-01 00:39:00,
2013-07-31 20:44:00,69.8,46.3,29.23,East,101,0.0,0.0,43,0.00,,---,0.00,VWS V14.01,2013-08-01 00:44:00,
2013-07-31 20:50:00,69.6,46.2,29.23,ESE,102,0.0,0.0,43,0.00,,---,0.00,VWS V14.01,2013-08-01 00:50:00,
2013-07-31 20:55:00,69.6,46.2,29.23,East,101,0.0,0.0,43,0.00,,---,0.00,VWS V14.01,2013-08-01 00:55:00,
2013-07-31 21:00:00,69.4,46.0,29.23,ESE,102,0.0,0.0,43,0.00,,---,0.00,VWS V14.01,2013-08-01 01:00:00,
2013-07-31 21:06:00,69.4,47.2,29.23,East,95,0.0,0.0,45,0.00,,---,0.00,VWS V14.01,2013-08-01 01:06:00,
2013-07-31 21:11:00,69.3,47.6,29.23,East,95,0.0,0.0,46,0.00,,---,0.00,VWS V14.01,2013-08-01 01:11:00,
2013-07-31 21:17:00,69.3,48.2,29.23,East,95,0.0,0.0,47,0.00,,---,0.00,VWS V14.01,2013-08-01 01:17:00,
2013-07-31 21:22:00,69.3,48.2,29.23,East,95,0.0,0.0,47,0.00,,---,0.00,VWS V14.01,2013-08-01 01:22:00,
2013-07-31 21:27:00,69.1,49.1,29.23,East,95,0.0,0.0,49,0.00,,---,0.00,VWS V14.01,2013-08-01 01:27:00,
2013-07-31 21:32:00,68.9,49.5,29.23,East,95,0.0,0.0,50,0.00,,---,0.00,VWS V14.01,2013-08-01 01:32:00,
2013-07-31 21:37:00,68.7,49.9,29.23,East,95,0.0,0.0,51,0.00,,---,0.00,VWS V14.01,2013-08-01 01:37:00,
2013-07-31 21:42:00,68.7,50.4,29.23,East,95,0.0,0.0,52,0.00,,---,0.00,VWS V14.01,2013-08-01 01:42:00,
2013-07-31 21:47:00,68.5,50.8,29.23,East,95,0.0,0.0,53,0.00,,---,0.00,VWS V14.01,2013-08-01 01:47:00,
2013-07-31 21:52:00,68.5,51.2,29.23,East,95,0.0,0.0,54,0.00,,---,0.00,VWS V14.01,2013-08-01 01:52:00,
2013-07-31 21:57:00,68.4,51.6,29.23,East,95,0.0,0.0,55,0.00,,---,0.00,VWS V14.01,2013-08-01 01:57:00,
2013-07-31 22:02:00,68.4,51.6,29.23,East,95,0.0,0.0,55,0.00,,---,0.00,VWS V14.01,2013-08-01 02:02:00,
2013-07-31 22:07:00,68.2,51.9,29.23,East,95,0.0,0.0,56,0.00,,---,0.00,VWS V14.01,2013-08-01 02:07:00,
2013-07-31 22:12:00,68.2,51.9,29.23,East,95,0.0,0.0,56,0.00,,---,0.00,VWS V14.01,2013-08-01 02:12:00,
2013-07-31 22:17:00,68.0,52.2,29.23,East,95,0.0,0.0,57,0.00,,---,0.00,VWS V14.01,2013-08-01 02:17:00,
2013-07-31 22:22:00,67.8,52.0,29.23,East,95,0.0,0.0,57,0.00,,---,0.00,VWS V14.01,2013-08-01 02:22:00,
2013-07-31 22:27:00,67.8,52.0,29.23,East,95,0.0,0.0,57,0.00,,---,0.00,VWS V14.01,2013-08-01 02:27:00,
2013-07-31 22:32:00,67.6,52.3,29.23,East,95,0.0,0.0,58,0.00,,---,0.00,VWS V14.01,2013-08-01 02:32:00,
2013-07-31 22:37:00,67.6,52.3,29.23,East,95,0.0,0.0,58,0.00,,---,0.00,VWS V14.01,2013-08-01 02:37:00,
2013-07-31 22:42:00,67.5,52.7,29.23,East,95,0.0,0.0,59,0.00,,---,0.00,VWS V14.01,2013-08-01 02:42:00,
2013-07-31 22:47:00,67.5,53.1,29.23,East,95,0.0,0.0,60,0.00,,---,0.00,VWS V14.01,2013-08-01 02:47:00,
2013-07-31 22:53:00,67.3,53.4,29.23,East,95,0.0,0.0,61,0.00,,---,0.00,VWS V14.01,2013-08-01 02:53:00,
2013-07-31 22:58:00,67.3,53.8,29.23,East,95,0.0,0.0,62,0.00,,---,0.00,VWS V14.01,2013-08-01 02:58:00,
2013-07-31 23:03:00,67.1,53.7,29.23,East,95,0.0,0.0,62,0.00,,---,0.00,VWS V14.01,2013-08-01 03:03:00,
2013-07-31 23:08:00,67.1,54.1,29.23,East,95,0.0,0.0,63,0.00,,---,0.00,VWS V14.01,2013-08-01 03:08:00,
2013-07-31 23:13:00,66.9,54.4,29.23,East,95,0.0,0.0,64,0.00,,---,0.00,VWS V14.01,2013-08-01 03:13:00,
2013-07-31 23:18:00,66.7,54.6,29.23,East,95,0.0,0.0,65,0.00,,---,0.00,VWS V14.01,2013-08-01 03:18:00,
2013-07-31 23:23:00,66.6,54.4,29.23,East,95,0.0,0.0,65,0.00,,---,0.00,VWS V14.01,2013-08-01 03:23:00,
2013-07-31 23:28:00,66.4,54.3,29.23,East,95,0.0,0.0,65,0.00,,---,0.00,VWS V14.01,2013-08-01 03:28:00,
2013-07-31 23:33:00,66.4,54.7,29.23,East,95,0.0,0.0,66,0.00,,---,0.00,VWS V14.01,2013-08-01 03:33:00,
2013-07-31 23:38:00,66.2,54.5,29.23,East,95,0.0,0.0,66,0.00,,---,0.00,VWS V14.01,2013-08-01 03:38:00,
2013-07-31 23:43:00,66.0,54.3,29.23,East,95,0.0,0.0,66,0.00,,---,0.00,VWS V14.01,2013-08-01 03:43:00,
2013-07-31 23:48:00,66.0,54.8,29.23,East,95,0.0,0.0,67,0.00,,---,0.00,VWS V14.01,2013-08-01 03:48:00,
2013-07-31 23:53:00,65.8,54.6,29.23,East,95,0.0,0.0,67,0.00,,---,0.00,VWS V14.01,2013-08-01 03:53:00,
2013-07-31 23:58:00,65.8,54.6,29.23,East,95,0.0,0.0,67,0.00,,---,0.00,VWS V14.01,2013-08-01 03:58:00,